カタログに戻る

NOAA 16 DEB

運用中PO
NORAD 41133·DEBRIS·🇺🇸 United States

打ち上げ Sep 21, 2000 から Vandenberg Space Force Base

Loading…

次のパス (今後24時間)

TLE

最新Source: Space-Track

元期: Sep 14, 2026, 11:29 UTC

1 41133U 00055BQ  26257.47871882  .00014585  00000-0  23801-2 0  9998
2 41133  98.9244  83.5792 0012129  29.4443 330.7442 14.70990630559590

AllMySatでNOAA 16 DEBをリアルタイム追跡

Download on the App Store